Regional Weather Roundup
Issued by NWS Wakefield, VA

Home | Current Version | Previous Version | Graphics & Text | Print | Product List | Glossary On
Versions: 1 2 3 4 5 6 7 8 9 10 11 12 13 14 15 16 17 18 19 20 21 22 23 24 25 26 27
000
ASUS41 KAKQ 221915
RWRAKQ

REGIONAL WEATHER ROUNDUP
NATIONAL WEATHER SERVICE WAKEFIELD VA
300 PM EDT MON AUG 22 2016

Note: "fair" indicates few or no clouds below 12,000 feet with no
significant weather and/or obstructions to visibility. * = Denotes
station may not report precipitation (e.g., rain,snow,etc.),
thunder or fog.

VAZ042-051-052>054-056-222000-
NORTHERN VIRGINIA

CITY           SKY/WX    TMP DP  RH WIND       PRES   REMARKS
WASH NATIONAL  MOSUNNY   85  60  42 NW14G20   30.10F
DULLES         PTSUNNY   83  56  39 NW9       30.12S
FORT BELVOIR   MOSUNNY   83  59  43 N9        30.10S
QUANTICO       MOSUNNY   83  59  44 NW10      30.11S
FREDERICKSBRG*   N/A     82  60  47 NW8       30.11S
STAFFORD*      SUNNY     83  58  42 NW8       30.15S
WARRENTON      MOSUNNY   84  52  32 NW8       30.12S
CULPEPER*      SUNNY     82  59  45 NW3       30.13F
MANASSAS*      MOSUNNY   82  57  42 N10G18    30.12S
LEESBURG*      PTSUNNY   82  61  47 NW9G16    30.13S
WINCHESTER     CLOUDY    77  55  47 N5        30.13F
FRONT ROYAL*   MOCLDY    77  59  53 CALM      30.13S
LURAY*         FAIR      79  52  38 W6        30.15S
$$

VAZ048-049-060>072-079>083-222000-
CENTRAL AND SOUTH CENTRAL VIRGINIA

CITY           SKY/WX    TMP DP  RH WIND       PRES   REMARKS
RICHMOND       MOSUNNY   86  56  35 NW13      30.10S
CHESTERFIELD*  FAIR      86  52  30 NE7       30.12S
PETERSBURG*    SUNNY     87  54  32 NW3       30.11S
HANOVER        MOSUNNY   83  58  42 NW9       30.12F
TAPPAHANNOCK*  MOSUNNY   83  60  45 NW7G16    30.11S
QUINTON*       FAIR      83  59  42 NW8       30.10S
CHARLOTTSVILLE MOSUNNY   83  55  38 VRB5      30.14S
GORDONSVILLE*  FAIR      82  57  42 NW3       30.12F
ORANGE*          N/A     82  55  39 CALM      30.14F
LOUISA*        MOSUNNY   84  61  45 N5        30.12S
BUMPASS*       FAIR      81  60  48 N5        30.12F
FARMVILLE*     SUNNY     84  53  34 NW3       30.11F
CREWE*         FAIR      85  58  40 NW7       30.12S
FORT PICKETT*  NOT AVBL
CHASE CITY*    FAIR      83  54  36 N6        30.12F
CLARKSVILLE*   FAIR      82  57  42 N7        30.12S
SOUTH HILL*    SUNNY     83  59  43 N5        30.17S
LAWRENCEVILLE* FAIR      83  58  41 NW3       30.11S
EMPORIA*       MOSUNNY   84  59  42 N7        30.11F
$$

VAZ088>098-222000-
SOUTHEAST VIRGINIA

CITY           SKY/WX    TMP DP  RH WIND       PRES   REMARKS
NORFOLK        SUNNY     82  65  56 NE9       30.08S
VIRGINIA BEACH MOSUNNY   89  62  40 N7G17     30.08R
NORFOLK NAVAL  SUNNY     86  61  42 N9        30.10S
WEST POINT*    PTSUNNY   85  57  38 N7        30.11S
SALUDA*        FAIR      82  64  54 NW9       30.08F
NEWPORT NEWS   SUNNY     86  59  39 N12       30.08F
LANGLEY AFB    MOSUNNY   85  60  43 N12       30.08S
FORT EUSTIS    MOSUNNY   88  60  38 NW8       30.06F
WILLIAMSBURG*  MOSUNNY   90  61  37 NW9       30.09F
HR EXEC AP*    FAIR      88  61  40 N6        30.11S
FRANKLIN*      SUNNY     84  55  37 CALM      30.09F
US460-WAKEFLD  SUNNY     86  55  34 MISG      30.09F
$$

VAZ020-022-025-037-045-222000-
WEST CENTRAL AND SOUTHWEST VIRGINIA

CITY           SKY/WX    TMP DP  RH WIND       PRES   REMARKS
STAUNTON*      MOSUNNY   79  54  41 NW6       30.18S
WAYNESBORO*    MOCLDY    76  55  47 NE3       30.18S
HOT SPRINGS VA SUNNY     70  49  48 W5        30.27S
LYNCHBURG      MOSUNNY   78  56  46 CALM      30.16F
DANVILLE       SUNNY     82  59  45 NW6       30.15S
SOUTH BOSTON*  NOT AVBL
MARTINSVILLE   MOSUNNY   80  57  45 CALM      30.19S
ROANOKE        MOSUNNY   79  57  46 W7        30.19S
BLACKSBURG     MOSUNNY   75  56  50 W6        30.25S
DUBLIN*        SUNNY     77  55  47 NE3       30.24S
MARION*        SUNNY     76  52  42 NW6       30.28S
HILLSVILLE*    MOSUNNY   72  55  55 W6        30.24F
RICHLANDS*     FAIR      72  57  59 NW5       30.27S
WISE*          PTSUNNY   73  46  38 NE6       30.29S
ABINGDON*      MOSUNNY   78  56  46 CALM      30.25S
$$

MDZ021>025-VAZ099-100-222000-
SOUTHERN MARYLAND AND THE DELMARVA PENINSULA

CITY           SKY/WX    TMP DP  RH WIND       PRES   REMARKS
PATUXENT RIVER MOSUNNY   82  62  50 VRB7      30.09S
BAY BRIDGE APT SUNNY     81  59  47 MISG      30.09S
LEONARDTOWN    MOSUNNY   81  61  50 W7        30.11S
DOVER          MOSUNNY   81  67  61 NW14G21   30.05R
GEORGETOWN     MOSUNNY   82  61  48 W14       30.07R
EASTON         MOSUNNY   82  66  57 NW12G18   30.12S
CAMBRIDGE      SUNNY     79  61  53 NW6       30.08F
SALISBURY      MOSUNNY   81  62  52 N9        30.07R
OCEAN CITY     SUNNY     85  63  47 N12       30.05S
WALLOPS ISLAND MOSUNNY   85  61  44 N10       30.07R
ACCOMACK*      MOSUNNY   82  64  53 NW12G20   30.08S
$$

NCZ012>017-030>032-222000-
NORTH CENTRAL AND EASTERN NORTH CAROLINA

CITY           SKY/WX    TMP DP  RH WIND       PRES   REMARKS
ROANOKE RAPIDS FAIR      84  61  45 W3        30.10S
RALEIGH        MOSUNNY   86  57  37 VRB5      30.13S
ELIZABETH CITY SUNNY     87  58  37 NW10      30.08S
AHOSKIE*       SUNNY     83  60  45 NW3       30.10S
EDENTON*       SUNNY     87  56  35 N5        30.09S
CURRITUCK*       N/A     83  64  52 E6        30.09S
KILL DEVIL HLS SUNNY     84  73  68 NE8       30.07F
MANTEO         SUNNY     83  65  55 NE12      30.09S
CAPE HATTERAS  SUNNY     85  68  56 N10G16    30.08S
TARBORO*       FAIR      87  62  43 NW6       30.11S
GOLDSBORO      SUNNY     88  60  39 VRB2      30.09S
WASHINGTON     SUNNY     84  64  50 N5        30.09F
GREENVILLE     MOSUNNY   88  59  37 NE9       30.11F
NEW BERN       SUNNY     86  66  51 N9        30.10S
WILMINGTON     MOSUNNY   89  67  47 N9        30.08F
$$

VAZ048-222000-
ELSEWHERE

CITY           SKY/WX    TMP DP  RH WIND       PRES   REMARKS
HARRISBURG PA  MOSUNNY   81  55  40 N13G24    30.09
BALTIMORE      MOSUNNY   79  57  46 NW8       30.09S
ANNAPOLIS      MOSUNNY   83  58  42 NW12      30.08S
ANDREWS AFB    MOSUNNY   79  60  51 NW9       30.09S
PHILADELPHIA   MOSUNNY   81  55  40 NW15G22   30.05S
HENDERSON NC   SUNNY     81  55  40 W3        30.12F
GREENSBORO     MOSUNNY   82  57  42 N7        30.16F
ROCKY MOUNT    SUNNY     87  59  38 VRB3      30.10F
$$

VAZ100-222000-
MARINE

STATION/POSITION TIME  TEMP    WIND        PRES    WAVE   SWELL
                       AIR SEA DIR/SP/G            HT/PER HT/PER
                 (UTC) (F)     (DEG/KT/KT) (MB)    (FT/S) (FT/S)
CAPE MAY NJ      1800   79 74  320/  3/ 10 1017.2R
LEWES DE         1800   75 75  360/  8/ 10 1017.7R
OCEAN-CITY-INLET 1800   79 71   20/  7/  9 1018.0R
WACHAPREAGUE VA  1800   84 83  300/  2/ 10 1018.4R
THOMAS POINT MD  1900   80 83  310/ 13/ 16 1020.1S
GOOSES REEF MD   1800   80 83  350/ 10/ 14 1019.4R   1/ 2
COVE POINT MD    1800   78      20/  7/ 11 1019.5R
SOLOMONS ISLAND  1800   81 85  290/  4/  8   N/A
BISHOPS HEAD MD  1800   80 83  350/ 10/ 17 1018.9R
PINEY POINT MD   1800          320/ 14/ 15   N/A
POTOMAC MD       1800   79 84  300/ 14/ 17 1017.9R   1/ 2
CAMBRIDGE MD     1800   78 85  350/ 10/ 14 1017.8R
LEWISETTA VA     1800   80 84  350/  7/ 11 1018.6R
RAPPAHANNOCK LGT 1800          330/ 13/ 15 1019.3R
STINGRAY PT      1800   81 85  300/  8/ 12 1019.2R   1/ 3
YORK RVR RNG VA  1800   80      10/ 12/ 13 1018.2R
YORKTOWN VA      1800   80 84  300/ 13/ 16 1018.4R
JAMESTOWN VA     1800   81 87  300/ 10/ 14   N/A     0
DOMINION TERM VA 1800   81     320/ 12/ 15 1018.8R
KIPTOPEKE VA     1800      79  330/ 13/ 16   N/A
CHES BAY BRIDGE  1800   78 78  360/  8/ 10 1018.7R
CAPE HENRY VA    1800   78     350/ 11/ 12   N/A
WILLOUBY STN VA  1800   80     350/  6/ 10   N/A
CAPE HENRY BUOY  1812      80                N/A     3/ 5
1ST LANDING BUOY 1800   78 76   10/  8/ 10 1018.6R   2/ 3
CAPE CHARLES BUO 1856      78                N/A     2/ 4
OFFSHORE WE BUOY 1851      81                N/A     4/ 6
64NM E OF VA BCH 1850   79 82  350/ 14/ 17 1018.0R   4/ 6   2/ 6
DUCK PIER NC     1800   78 76   10/  8/ 12 1018.1R
44100 DUCK FRF   1805      81                N/A     4/ 6
44056 DUCK FRF   1811      78                N/A     4/ 6
OREGON INLET NC  1800   81 81  340/  9/ 15 1018.6R
HATTERAS NC      1800   82 83   20/  8/ 15 1018.4R
DIAMOND SHLS NC  1850   81 85   10/ 14/ 17 1018.4    3/ 6   2/14
CAPE LOOKOUT NC  1900   82      70/ 10/ 11 1018.3F
$$




USA.gov is the U.S. government's official web portal to all federal, state and local government web resources and services.